Regional Weather Roundup
Issued by NWS

Home | Current Version | Previous Version | Text Only | Print | Product List | Glossary On
Versions: 1 2 3 4 5 6 7 8 9 10 11 12 13 14 15 16 17 18 19 20 21 22 23 24 25 26 27 28 29 30 31 32 33 34 35 36 37 38 39 40 41 42 43 44 45 46 47 48 49 50
763
ASCA42 TJSJ 240010
RWRPR
PUERTO RICO/U.S. VIRGIN ISLANDS HOURLY WEATHER ROUNDUP
NATIONAL WEATHER SERVICE SAN JUAN PR
800 PM AST FRI JUN 23 2017

PRZ001>002-007>008-010-240100-
PUERTO RICO

CITY           SKY/WX    TMP DP  RH WIND       PRES   REMARKS
SAN JUAN LMM   PTCLDY    82  73  74 E14       30.00R
AGUADILLA      PTCLDY    79  72  78 E12G18    30.00R
CEIBA          CLOUDY    81  75  83 NE10      30.02R
$$

VIZ001>002-240100-
U.S. VIRGIN ISLANDS

CITY           SKY/WX    TMP DP  RH WIND       PRES   REMARKS
CHARLOTTE AMA  CLEAR     82  75  78 E9        29.99R
CHRISTIANSTED  PTCLDY    75  72  88 NE6       30.00R
$$

HOURLY WEATHER ROUNDUP FOR THE NEWS MEDIA

CITY           SKY/WX    TMP DP  RH WIND       PRES   REMARKS
ORLANDO        CLEAR     85  75  72 SE15      29.99S HX  93
NEW YORK       CLOUDY    73  71  93 S16       29.66R
NEWARK         TSTM      83  73  72 S13G20    29.63S
CHICAGO        PTSUNNY   79  51  37 W13       29.71R
HARTFORD       CLOUDY    71  67  87 SW16G23   29.66F
BOSTON         MOCLDY    77  69  76 SW16G26   29.60F
DALLAS         MOSUNNY   96  72  45 SE12      29.78R HX 104
PHILADELPHIA   MOCLDY    84  72  67 SW16G24   29.67S
LOS ANGELES    PTSUNNY   66  61  84 W14       29.90S
WASHINGTON DC  MOCLDY    84  72  67 S13       29.70R



USA.gov is the U.S. government's official web portal to all federal, state and local government web resources and services.